Time,TemperatureF,DewpointF,PressureIn,WindDirection,WindDirectionDegrees,WindSpeedMPH,WindSpeedGustMPH,Humidity,HourlyPrecipIn,Conditions,Clouds,dailyrainin,SoftwareType,DateUTC
2013-03-06 00:00:00,25.7,19.8,30.07,NNE,31,7.0,10.0,78,0.00,,---,0.00,VWS V14.01,2013-03-06 05:00:00,
2013-03-06 00:05:00,25.6,20.0,30.07,NNE,32,7.0,8.0,79,0.00,,---,0.00,VWS V14.01,2013-03-06 05:05:00,
2013-03-06 00:10:00,25.5,19.9,30.07,North,10,5.0,9.0,79,0.00,,---,0.00,VWS V14.01,2013-03-06 05:10:00,
2013-03-06 00:15:00,25.3,19.7,30.07,NNE,13,4.0,6.0,79,0.00,,---,0.00,VWS V14.01,2013-03-06 05:15:00,
2013-03-06 00:20:00,25.1,19.8,30.07,North,11,4.0,5.0,80,0.00,,---,0.00,VWS V14.01,2013-03-06 05:20:00,
2013-03-06 00:25:00,25.1,20.1,30.07,NNE,13,5.0,6.0,81,0.00,,---,0.00,VWS V14.01,2013-03-06 05:25:00,
2013-03-06 00:30:00,25.2,20.5,30.07,North,9,7.0,10.0,82,0.00,,---,0.00,VWS V14.01,2013-03-06 05:30:00,
2013-03-06 00:35:00,25.4,20.7,30.07,North,11,10.0,10.0,82,0.00,,---,0.00,VWS V14.01,2013-03-06 05:35:00,
2013-03-06 00:40:00,25.6,20.9,30.08,North,9,10.0,11.0,82,0.00,,---,0.00,VWS V14.01,2013-03-06 05:40:00,
2013-03-06 00:45:00,25.8,21.1,30.07,NNE,13,10.0,11.0,82,0.00,,---,0.00,VWS V14.01,2013-03-06 05:45:00,
2013-03-06 00:50:00,26.1,21.4,30.08,NNE,30,12.0,12.0,82,0.00,,---,0.00,VWS V14.01,2013-03-06 05:50:00,
2013-03-06 00:55:00,26.2,21.2,30.08,NNE,24,7.0,12.0,81,0.00,,---,0.00,VWS V14.01,2013-03-06 05:55:00,
2013-03-06 01:00:00,26.3,21.6,30.08,NNE,18,6.0,12.0,82,0.00,,---,0.00,VWS V14.01,2013-03-06 06:00:00,
2013-03-06 01:05:00,26.7,21.7,30.07,NNE,18,10.0,10.0,81,0.00,,---,0.00,VWS V14.01,2013-03-06 06:05:00,
2013-03-06 01:10:00,27.0,22.0,30.07,NNE,19,9.0,9.0,81,0.00,,---,0.00,VWS V14.01,2013-03-06 06:10:00,
2013-03-06 01:15:00,27.1,22.1,30.08,NNE,25,11.0,11.0,81,0.00,,---,0.00,VWS V14.01,2013-03-06 06:15:00,
2013-03-06 01:20:00,27.6,22.5,30.08,NE,34,7.0,10.0,81,0.00,,---,0.00,VWS V14.01,2013-03-06 06:20:00,
2013-03-06 01:25:00,27.8,22.4,30.08,NE,42,6.0,9.0,80,0.00,,---,0.00,VWS V14.01,2013-03-06 06:25:00,
2013-03-06 01:30:00,27.8,22.4,30.08,NE,36,9.0,11.0,80,0.00,,---,0.00,VWS V14.01,2013-03-06 06:30:00,
2013-03-06 01:35:00,28.0,22.9,30.08,NNE,22,9.0,13.0,81,0.00,,---,0.00,VWS V14.01,2013-03-06 06:35:00,
2013-03-06 01:40:00,28.2,22.8,30.08,NNE,28,9.0,10.0,80,0.00,,---,0.00,VWS V14.01,2013-03-06 06:40:00,
2013-03-06 01:45:00,28.1,23.0,30.08,NE,41,9.0,10.0,81,0.00,,---,0.00,VWS V14.01,2013-03-06 06:45:00,
2013-03-06 01:50:00,28.1,23.0,30.08,NNE,18,13.0,13.0,81,0.00,,---,0.00,VWS V14.01,2013-03-06 06:50:00,
2013-03-06 01:55:00,28.4,23.3,30.08,NE,40,9.0,10.0,81,0.00,,---,0.00,VWS V14.01,2013-03-06 06:55:00,
2013-03-06 02:00:00,28.3,23.2,30.08,NNE,26,10.0,10.0,81,0.00,,---,0.00,VWS V14.01,2013-03-06 07:00:00,
2013-03-06 02:05:00,28.3,23.2,30.08,NNE,32,8.0,9.0,81,0.00,,---,0.00,VWS V14.01,2013-03-06 07:05:00,
2013-03-06 02:10:00,28.2,23.4,30.08,NNE,30,7.0,11.0,82,0.00,,---,0.00,VWS V14.01,2013-03-06 07:10:00,
2013-03-06 02:15:00,28.4,23.6,30.09,NNE,31,12.0,12.0,82,0.00,,---,0.00,VWS V14.01,2013-03-06 07:15:00,
2013-03-06 02:20:00,28.4,23.6,30.09,NE,51,9.0,9.0,82,0.00,,---,0.00,VWS V14.01,2013-03-06 07:20:00,
2013-03-06 02:25:00,28.4,23.6,30.09,NNE,30,13.0,13.0,82,0.00,,---,0.00,VWS V14.01,2013-03-06 07:25:00,
2013-03-06 02:30:00,28.5,23.7,30.09,NE,42,8.0,11.0,82,0.00,,---,0.00,VWS V14.01,2013-03-06 07:30:00,
2013-03-06 02:35:00,28.5,23.7,30.09,NE,38,9.0,11.0,82,0.00,,---,0.00,VWS V14.01,2013-03-06 07:35:00,
2013-03-06 02:40:00,28.5,24.0,30.09,NE,38,13.0,14.0,83,0.00,,---,0.00,VWS V14.01,2013-03-06 07:40:00,
2013-03-06 02:46:00,28.6,24.1,30.09,NE,38,9.0,10.0,83,0.00,,---,0.00,VWS V14.01,2013-03-06 07:46:00,
2013-03-06 02:51:00,28.7,24.2,30.09,NE,41,11.0,13.0,83,0.00,,---,0.00,VWS V14.01,2013-03-06 07:51:00,
2013-03-06 02:56:00,28.7,24.2,30.09,ENE,59,9.0,12.0,83,0.00,,---,0.00,VWS V14.01,2013-03-06 07:56:00,
2013-03-06 03:01:00,28.8,24.3,30.08,ENE,57,16.0,16.0,83,0.00,,---,0.00,VWS V14.01,2013-03-06 08:01:00,
2013-03-06 03:05:00,28.7,24.2,30.09,NE,49,11.0,12.0,83,0.00,,---,0.00,VWS V14.01,2013-03-06 08:05:00,
2013-03-06 03:10:00,28.7,24.2,30.09,NE,41,12.0,13.0,83,0.00,,---,0.00,VWS V14.01,2013-03-06 08:10:00,
2013-03-06 03:15:00,28.8,24.6,30.09,NE,46,7.0,10.0,84,0.00,,---,0.00,VWS V14.01,2013-03-06 08:15:00,
2013-03-06 03:20:00,28.7,24.2,30.09,NE,47,14.0,14.0,83,0.00,,---,0.00,VWS V14.01,2013-03-06 08:20:00,
2013-03-06 03:25:00,28.8,24.6,30.09,NE,37,5.0,6.0,84,0.00,,---,0.00,VWS V14.01,2013-03-06 08:25:00,
2013-03-06 03:31:00,28.6,24.4,30.09,NE,35,9.0,9.0,84,0.00,,---,0.00,VWS V14.01,2013-03-06 08:31:00,
2013-03-06 03:36:00,28.5,24.3,30.09,NE,49,6.0,9.0,84,0.00,,---,0.00,VWS V14.01,2013-03-06 08:36:00,
2013-03-06 03:41:00,28.3,24.1,30.09,NE,50,6.0,9.0,84,0.00,,---,0.00,VWS V14.01,2013-03-06 08:41:00,
2013-03-06 03:46:00,28.1,23.9,30.09,NE,46,8.0,12.0,84,0.00,,---,0.00,VWS V14.01,2013-03-06 08:46:00,
2013-03-06 03:51:00,28.1,23.9,30.09,NE,49,6.0,10.0,84,0.00,,---,0.00,VWS V14.01,2013-03-06 08:51:00,
2013-03-06 03:55:00,28.1,24.2,30.09,ENE,60,9.0,10.0,85,0.00,,---,0.00,VWS V14.01,2013-03-06 08:55:00,
2013-03-06 04:00:00,27.9,23.7,30.09,NE,34,5.0,7.0,84,0.00,,---,0.00,VWS V14.01,2013-03-06 09:00:00,
2013-03-06 04:06:00,27.8,23.9,30.10,NE,47,4.0,5.0,85,0.00,,---,0.00,VWS V14.01,2013-03-06 09:06:00,
2013-03-06 04:11:00,27.7,23.8,30.10,NE,50,6.0,6.0,85,0.00,,---,0.00,VWS V14.01,2013-03-06 09:11:00,
2013-03-06 04:16:00,27.8,23.9,30.10,NE,43,3.0,6.0,85,0.00,,---,0.00,VWS V14.01,2013-03-06 09:16:00,
2013-03-06 04:20:00,27.9,24.0,30.10,NNE,33,5.0,9.0,85,0.00,,---,0.00,VWS V14.01,2013-03-06 09:20:00,
2013-03-06 04:26:00,27.9,24.0,30.10,NE,42,4.0,6.0,85,0.00,,---,0.00,VWS V14.01,2013-03-06 09:26:00,
2013-03-06 04:31:00,28.0,24.1,30.11,NE,53,5.0,10.0,85,0.00,,---,0.00,VWS V14.01,2013-03-06 09:31:00,
2013-03-06 04:36:00,27.9,24.0,30.11,NE,34,6.0,6.0,85,0.00,,---,0.00,VWS V14.01,2013-03-06 09:36:00,
2013-03-06 04:41:00,27.9,24.0,30.11,NE,49,5.0,8.0,85,0.00,,---,0.00,VWS V14.01,2013-03-06 09:41:00,
2013-03-06 04:46:00,28.0,24.1,30.11,NE,40,3.0,5.0,85,0.00,,---,0.00,VWS V14.01,2013-03-06 09:46:00,
2013-03-06 04:51:00,27.9,24.0,30.11,NE,37,4.0,6.0,85,0.00,,---,0.00,VWS V14.01,2013-03-06 09:51:00,
2013-03-06 04:56:00,28.0,24.1,30.11,NNE,33,6.0,6.0,85,0.00,,---,0.00,VWS V14.01,2013-03-06 09:56:00,
2013-03-06 05:01:00,27.9,24.0,30.12,ENE,60,9.0,11.0,85,0.00,,---,0.00,VWS V14.01,2013-03-06 10:01:00,
2013-03-06 05:06:00,27.9,24.0,30.12,NE,41,6.0,7.0,85,0.00,,---,0.00,VWS V14.01,2013-03-06 10:06:00,
2013-03-06 05:11:00,27.9,24.0,30.12,NE,38,9.0,11.0,85,0.00,,---,0.00,VWS V14.01,2013-03-06 10:11:00,
2013-03-06 05:16:00,27.9,24.0,30.12,ENE,58,7.0,12.0,85,0.00,,---,0.00,VWS V14.01,2013-03-06 10:16:00,
2013-03-06 05:21:00,27.9,24.0,30.13,NE,38,7.0,14.0,85,0.00,,---,0.00,VWS V14.01,2013-03-06 10:21:00,
2013-03-06 05:26:00,27.8,23.9,30.13,NE,48,9.0,12.0,85,0.00,,---,0.00,VWS V14.01,2013-03-06 10:26:00,
2013-03-06 05:31:00,27.6,23.7,30.13,NE,53,10.0,10.0,85,0.00,,---,0.00,VWS V14.01,2013-03-06 10:31:00,
2013-03-06 05:36:00,27.8,24.2,30.14,ENE,61,9.0,12.0,86,0.00,,---,0.00,VWS V14.01,2013-03-06 10:36:00,
2013-03-06 05:41:00,27.9,24.0,30.14,NE,55,12.0,13.0,85,0.00,,---,0.00,VWS V14.01,2013-03-06 10:41:00,
2013-03-06 05:46:00,27.9,24.0,30.14,ENE,60,8.0,9.0,85,0.00,,---,0.00,VWS V14.01,2013-03-06 10:46:00,
2013-03-06 05:51:00,28.0,26.0,30.14,NE,51,5.0,9.0,92,0.00,,---,0.00,VWS V14.01,2013-03-06 10:51:00,
2013-03-06 05:56:00,28.0,24.1,30.15,NE,46,5.0,6.0,85,0.00,,---,0.00,VWS V14.01,2013-03-06 10:56:00,
2013-03-06 06:01:00,28.1,24.5,30.15,NE,41,6.0,6.0,86,0.00,,---,0.00,VWS V14.01,2013-03-06 11:01:00,
2013-03-06 06:06:00,28.3,24.7,30.15,NE,41,5.0,6.0,86,0.00,,---,0.00,VWS V14.01,2013-03-06 11:06:00,
2013-03-06 06:11:00,28.4,24.5,30.15,NE,45,5.0,6.0,85,0.00,,---,0.00,VWS V14.01,2013-03-06 11:11:00,
2013-03-06 06:16:00,28.4,24.8,30.15,NE,38,6.0,8.0,86,0.00,,---,0.00,VWS V14.01,2013-03-06 11:16:00,
2013-03-06 06:21:00,28.4,24.5,30.15,NE,41,9.0,11.0,85,0.00,,---,0.00,VWS V14.01,2013-03-06 11:21:00,
2013-03-06 06:26:00,28.5,24.9,30.15,NE,44,6.0,9.0,86,0.00,,---,0.00,VWS V14.01,2013-03-06 11:26:00,
2013-03-06 06:31:00,28.5,24.6,30.16,NE,39,5.0,9.0,85,0.00,,---,0.00,VWS V14.01,2013-03-06 11:31:00,
2013-03-06 06:36:00,28.5,24.6,30.16,NE,40,5.0,7.0,85,0.00,,---,0.00,VWS V14.01,2013-03-06 11:36:00,
2013-03-06 06:41:00,28.4,24.5,30.16,NNE,20,4.0,5.0,85,0.00,,---,0.00,VWS V14.01,2013-03-06 11:41:00,
2013-03-06 06:46:00,28.4,24.5,30.16,NE,44,4.0,5.0,85,0.00,,---,0.00,VWS V14.01,2013-03-06 11:46:00,
2013-03-06 06:51:00,28.4,24.8,30.16,NNE,21,5.0,7.0,86,0.00,,---,0.00,VWS V14.01,2013-03-06 11:51:00,
2013-03-06 06:56:00,28.3,24.4,30.16,North,11,7.0,9.0,85,0.00,,---,0.00,VWS V14.01,2013-03-06 11:56:00,
2013-03-06 07:01:00,28.1,24.5,30.17,NNE,24,7.0,7.0,86,0.00,,---,0.00,VWS V14.01,2013-03-06 12:01:00,
2013-03-06 07:06:00,27.8,24.2,30.16,NE,41,6.0,9.0,86,0.00,,---,0.00,VWS V14.01,2013-03-06 12:06:00,
2013-03-06 07:11:00,27.9,24.3,30.16,NE,50,6.0,9.0,86,0.00,,---,0.00,VWS V14.01,2013-03-06 12:11:00,
2013-03-06 07:16:00,28.2,24.6,30.17,NE,46,6.0,7.0,86,0.00,,---,0.00,VWS V14.01,2013-03-06 12:16:00,
2013-03-06 07:21:00,28.4,24.8,30.17,NE,40,4.0,5.0,86,0.00,,---,0.00,VWS V14.01,2013-03-06 12:21:00,
2013-03-06 07:26:00,28.5,24.9,30.17,NE,37,5.0,8.0,86,0.00,,---,0.00,VWS V14.01,2013-03-06 12:26:00,
2013-03-06 07:32:00,28.6,25.0,30.18,NNE,28,3.0,6.0,86,0.00,,---,0.00,VWS V14.01,2013-03-06 12:32:00,
2013-03-06 07:37:00,28.5,24.9,30.17,NNE,33,4.0,6.0,86,0.00,,---,0.00,VWS V14.01,2013-03-06 12:37:00,
2013-03-06 07:42:00,28.3,24.7,30.17,NNE,29,7.0,7.0,86,0.00,,---,0.00,VWS V14.01,2013-03-06 12:42:00,
2013-03-06 07:47:00,28.4,24.8,30.18,NNE,17,6.0,9.0,86,0.00,,---,0.00,VWS V14.01,2013-03-06 12:47:00,
2013-03-06 07:52:00,28.3,24.7,30.18,NNE,13,3.0,5.0,86,0.00,,---,0.00,VWS V14.01,2013-03-06 12:52:00,
2013-03-06 07:57:00,28.3,24.7,30.18,NNE,19,5.0,6.0,86,0.00,,---,0.00,VWS V14.01,2013-03-06 12:57:00,
2013-03-06 08:02:00,28.3,24.7,30.18,NNE,17,6.0,6.0,86,0.00,,---,0.00,VWS V14.01,2013-03-06 13:02:00,
2013-03-06 08:07:00,28.5,24.9,30.18,NNE,22,5.0,7.0,86,0.00,,---,0.00,VWS V14.01,2013-03-06 13:07:00,
2013-03-06 08:12:00,28.7,25.0,30.18,North,11,6.0,7.0,86,0.00,,---,0.00,VWS V14.01,2013-03-06 13:12:00,
2013-03-06 08:17:00,28.8,25.1,30.18,NNE,17,5.0,7.0,86,0.00,,---,0.00,VWS V14.01,2013-03-06 13:17:00,
2013-03-06 08:22:00,29.0,25.4,30.18,NNE,21,6.0,7.0,86,0.00,,---,0.00,VWS V14.01,2013-03-06 13:22:00,
2013-03-06 08:27:00,29.2,25.3,30.17,NNE,22,7.0,9.0,85,0.00,,---,0.00,VWS V14.01,2013-03-06 13:27:00,
2013-03-06 08:32:00,29.3,25.4,30.17,NE,34,6.0,8.0,85,0.00,,---,0.00,VWS V14.01,2013-03-06 13:32:00,
2013-03-06 08:37:00,29.4,25.2,30.17,NE,51,3.0,6.0,84,0.00,,---,0.00,VWS V14.01,2013-03-06 13:37:00,
2013-03-06 08:42:00,29.5,25.3,30.17,NE,49,4.0,7.0,84,0.00,,---,0.00,VWS V14.01,2013-03-06 13:42:00,
2013-03-06 08:47:00,29.6,25.4,30.17,NE,55,4.0,6.0,84,0.00,,---,0.00,VWS V14.01,2013-03-06 13:47:00,
2013-03-06 08:52:00,29.7,25.5,30.17,ENE,58,5.0,7.0,84,0.00,,---,0.00,VWS V14.01,2013-03-06 13:52:00,
2013-03-06 08:57:00,29.9,25.4,30.17,NE,46,5.0,5.0,83,0.00,,---,0.00,VWS V14.01,2013-03-06 13:57:00,
2013-03-06 09:02:00,30.1,25.6,30.17,ENE,60,4.0,7.0,83,0.00,,---,0.00,VWS V14.01,2013-03-06 14:02:00,
2013-03-06 09:07:00,30.3,25.8,30.17,NE,51,2.0,4.0,83,0.00,,---,0.00,VWS V14.01,2013-03-06 14:07:00,
2013-03-06 09:12:00,30.6,26.1,30.17,NE,53,5.0,10.0,83,0.00,,---,0.00,VWS V14.01,2013-03-06 14:12:00,
2013-03-06 09:17:00,30.8,26.0,30.17,NE,48,4.0,6.0,82,0.00,,---,0.00,VWS V14.01,2013-03-06 14:17:00,
2013-03-06 09:22:00,30.9,26.1,30.17,NE,34,5.0,7.0,82,0.00,,---,0.00,VWS V14.01,2013-03-06 14:22:00,
2013-03-06 09:27:00,31.0,26.2,30.17,NNE,32,5.0,7.0,82,0.00,,---,0.00,VWS V14.01,2013-03-06 14:27:00,
2013-03-06 09:32:00,31.2,26.4,30.17,NE,34,4.0,7.0,82,0.00,,---,0.00,VWS V14.01,2013-03-06 14:32:00,
2013-03-06 09:37:00,31.3,26.5,30.18,NE,36,5.0,6.0,82,0.00,,---,0.00,VWS V14.01,2013-03-06 14:37:00,
2013-03-06 09:42:00,31.4,26.5,30.18,NNE,19,3.0,5.0,82,0.00,,---,0.00,VWS V14.01,2013-03-06 14:42:00,
2013-03-06 09:47:00,31.7,26.8,30.18,NNE,15,5.0,6.0,82,0.00,,---,0.00,VWS V14.01,2013-03-06 14:47:00,
2013-03-06 09:52:00,31.8,26.6,30.18,NE,44,4.0,6.0,81,0.00,,---,0.00,VWS V14.01,2013-03-06 14:52:00,
2013-03-06 09:57:00,31.7,26.5,30.18,NE,53,5.0,6.0,81,0.00,,---,0.00,VWS V14.01,2013-03-06 14:57:00,
2013-03-06 10:02:00,31.6,26.5,30.18,NE,53,5.0,6.0,81,0.00,,---,0.00,VWS V14.01,2013-03-06 15:02:00,
2013-03-06 10:07:00,31.7,26.5,30.18,NNE,32,3.0,5.0,81,0.00,,---,0.00,VWS V14.01,2013-03-06 15:07:00,
2013-03-06 10:12:00,31.9,26.7,30.18,ENE,63,5.0,5.0,81,0.00,,---,0.00,VWS V14.01,2013-03-06 15:12:00,
2013-03-06 10:17:00,32.2,27.0,30.18,NE,52,2.0,5.0,81,0.00,,---,0.00,VWS V14.01,2013-03-06 15:17:00,
2013-03-06 10:22:00,32.5,27.3,30.18,NE,44,3.0,4.0,81,0.00,,---,0.00,VWS V14.01,2013-03-06 15:22:00,
2013-03-06 10:27:00,32.7,27.2,30.19,NNE,25,4.0,6.0,80,0.00,,---,0.00,VWS V14.01,2013-03-06 15:27:00,
2013-03-06 10:32:00,32.8,27.3,30.19,NNE,18,0.0,4.0,80,0.00,,---,0.00,VWS V14.01,2013-03-06 15:32:00,
2013-03-06 10:37:00,32.9,27.1,30.19,NNE,13,1.0,6.0,79,0.00,,---,0.00,VWS V14.01,2013-03-06 15:37:00,
2013-03-06 10:42:00,33.0,27.5,30.19,NNE,17,1.0,5.0,80,0.00,,---,0.00,VWS V14.01,2013-03-06 15:42:00,
2013-03-06 10:47:00,33.2,27.4,30.19,NNE,13,0.0,4.0,79,0.00,,---,0.00,VWS V14.01,2013-03-06 15:47:00,
2013-03-06 10:52:00,33.3,27.5,30.19,North,11,5.0,6.0,79,0.00,,---,0.00,VWS V14.01,2013-03-06 15:52:00,
2013-03-06 10:57:00,33.3,27.5,30.19,NNE,21,1.0,7.0,79,0.00,,---,0.00,VWS V14.01,2013-03-06 15:57:00,
2013-03-06 11:02:00,33.3,27.5,30.19,NNE,15,3.0,5.0,79,0.00,,---,0.00,VWS V14.01,2013-03-06 16:02:00,
2013-03-06 11:07:00,33.4,27.6,30.19,NNE,28,3.0,4.0,79,0.00,,---,0.00,VWS V14.01,2013-03-06 16:07:00,
2013-03-06 11:12:00,33.6,27.8,30.19,NNE,15,0.0,5.0,79,0.00,,---,0.00,VWS V14.01,2013-03-06 16:12:00,
2013-03-06 11:17:00,33.8,27.7,30.19,NNE,16,0.0,3.0,78,0.00,,---,0.00,VWS V14.01,2013-03-06 16:17:00,
2013-03-06 11:22:00,33.9,27.8,30.18,NNE,16,1.0,4.0,78,0.00,,---,0.00,VWS V14.01,2013-03-06 16:22:00,
2013-03-06 11:27:00,33.9,28.1,30.18,NNE,14,0.0,5.0,79,0.00,,---,0.00,VWS V14.01,2013-03-06 16:27:00,
2013-03-06 11:32:00,33.6,27.8,30.18,NNE,12,3.0,6.0,79,0.00,,---,0.00,VWS V14.01,2013-03-06 16:32:00,
2013-03-06 11:37:00,33.4,27.6,30.18,NNE,15,5.0,7.0,79,0.00,,---,0.00,VWS V14.01,2013-03-06 16:37:00,
2013-03-06 11:42:00,33.5,28.0,30.18,NNE,14,4.0,5.0,80,0.00,,---,0.00,VWS V14.01,2013-03-06 16:42:00,
2013-03-06 11:48:00,33.8,28.3,30.18,NNE,12,0.0,4.0,80,0.00,,---,0.00,VWS V14.01,2013-03-06 16:48:00,
2013-03-06 11:53:00,33.8,28.3,30.18,North,11,3.0,4.0,80,0.00,,---,0.00,VWS V14.01,2013-03-06 16:53:00,
2013-03-06 11:58:00,33.9,28.4,30.18,NNW,342,0.0,1.0,80,0.00,,---,0.00,VWS V14.01,2013-03-06 16:58:00,
2013-03-06 12:03:00,34.3,28.5,30.19,WSW,254,1.0,3.0,79,0.00,,---,0.00,VWS V14.01,2013-03-06 17:03:00,
2013-03-06 12:08:00,34.2,28.4,30.19,NNE,14,0.0,3.0,79,0.00,,---,0.00,VWS V14.01,2013-03-06 17:08:00,
2013-03-06 12:13:00,33.9,28.1,30.19,NNE,16,2.0,2.0,79,0.00,,---,0.00,VWS V14.01,2013-03-06 17:13:00,
2013-03-06 12:18:00,34.0,28.5,30.19,NNE,28,0.0,2.0,80,0.00,,---,0.00,VWS V14.01,2013-03-06 17:18:00,
2013-03-06 12:23:00,33.9,28.4,30.19,NNW,328,0.0,2.0,80,0.00,,---,0.00,VWS V14.01,2013-03-06 17:23:00,
2013-03-06 12:28:00,34.4,28.6,30.19,West,279,3.0,6.0,79,0.00,,---,0.00,VWS V14.01,2013-03-06 17:28:00,
2013-03-06 12:33:00,34.4,28.3,30.19,NNE,24,0.0,3.0,78,0.00,,---,0.00,VWS V14.01,2013-03-06 17:33:00,
2013-03-06 12:38:00,34.4,28.6,30.19,NW,321,0.0,5.0,79,0.00,,---,0.00,VWS V14.01,2013-03-06 17:38:00,
2013-03-06 12:43:00,34.2,28.4,30.19,NNE,15,4.0,4.0,79,0.00,,---,0.00,VWS V14.01,2013-03-06 17:43:00,
2013-03-06 12:48:00,33.9,28.1,30.18,North,360,1.0,4.0,79,0.00,,---,0.00,VWS V14.01,2013-03-06 17:48:00,
2013-03-06 12:53:00,34.2,28.7,30.18,NW,317,0.0,3.0,80,0.00,,---,0.00,VWS V14.01,2013-03-06 17:53:00,
2013-03-06 12:58:00,34.4,28.6,30.18,NW,305,0.0,9.0,79,0.00,,---,0.00,VWS V14.01,2013-03-06 17:58:00,
2013-03-06 13:03:00,34.4,28.6,30.18,South,187,0.0,4.0,79,0.00,,---,0.00,VWS V14.01,2013-03-06 18:03:00,
2013-03-06 13:08:00,34.4,28.6,30.18,WNW,284,0.0,9.0,79,0.00,,---,0.00,VWS V14.01,2013-03-06 18:08:00,
2013-03-06 13:13:00,34.6,28.5,30.18,NE,44,2.0,4.0,78,0.00,,---,0.00,VWS V14.01,2013-03-06 18:13:00,
2013-03-06 13:18:00,34.4,28.3,30.18,NNE,12,4.0,4.0,78,0.00,,---,0.00,VWS V14.01,2013-03-06 18:18:00,
2013-03-06 13:23:00,33.3,27.8,30.18,North,10,5.0,7.0,80,0.00,,---,0.00,VWS V14.01,2013-03-06 18:23:00,
2013-03-06 13:28:00,33.1,27.6,30.18,North,349,1.0,6.0,80,0.00,,---,0.00,VWS V14.01,2013-03-06 18:28:00,
2013-03-06 13:33:00,32.8,27.6,30.18,North,5,3.0,5.0,81,0.00,,---,0.00,VWS V14.01,2013-03-06 18:33:00,
2013-03-06 13:38:00,32.6,27.7,30.18,North,360,5.0,6.0,82,0.00,,---,0.00,VWS V14.01,2013-03-06 18:38:00,
2013-03-06 13:43:00,32.8,27.9,30.18,NNW,337,3.0,6.0,82,0.00,,---,0.00,VWS V14.01,2013-03-06 18:43:00,
2013-03-06 13:48:00,33.3,28.1,30.18,North,360,0.0,4.0,81,0.00,,---,0.00,VWS V14.01,2013-03-06 18:48:00,
2013-03-06 13:53:00,33.5,28.0,30.18,NNE,25,2.0,6.0,80,0.00,,---,0.00,VWS V14.01,2013-03-06 18:53:00,
2013-03-06 13:58:00,33.2,27.7,30.18,NNE,16,0.0,5.0,80,0.00,,---,0.00,VWS V14.01,2013-03-06 18:58:00,
2013-03-06 14:03:00,33.1,27.9,30.18,North,9,3.0,8.0,81,0.00,,---,0.00,VWS V14.01,2013-03-06 19:03:00,
2013-03-06 14:08:00,33.3,28.1,30.18,NW,311,1.0,5.0,81,0.00,,---,0.00,VWS V14.01,2013-03-06 19:08:00,
2013-03-06 14:13:00,33.3,28.1,30.18,NW,322,6.0,6.0,81,0.00,,---,0.00,VWS V14.01,2013-03-06 19:13:00,
2013-03-06 14:18:00,32.4,27.8,30.18,North,355,4.0,10.0,83,0.00,,---,0.00,VWS V14.01,2013-03-06 19:18:00,
2013-03-06 14:23:00,32.0,27.7,30.18,North,355,4.0,7.0,84,0.00,,---,0.00,VWS V14.01,2013-03-06 19:23:00,
2013-03-06 14:28:00,32.1,27.8,30.18,North,355,4.0,10.0,84,0.00,,---,0.00,VWS V14.01,2013-03-06 19:28:00,
2013-03-06 14:33:00,32.1,27.8,30.18,NNE,17,5.0,10.0,84,0.00,,---,0.00,VWS V14.01,2013-03-06 19:33:00,
2013-03-06 14:38:00,32.1,27.8,30.18,North,5,5.0,9.0,84,0.00,,---,0.00,VWS V14.01,2013-03-06 19:38:00,
2013-03-06 14:43:00,32.0,27.7,30.18,North,5,4.0,8.0,84,0.00,,---,0.00,VWS V14.01,2013-03-06 19:43:00,
2013-03-06 14:48:00,32.4,28.1,30.18,North,9,1.0,7.0,84,0.00,,---,0.00,VWS V14.01,2013-03-06 19:48:00,
2013-03-06 14:53:00,32.5,27.9,30.18,NNE,13,2.0,10.0,83,0.00,,---,0.00,VWS V14.01,2013-03-06 19:53:00,
2013-03-06 14:58:00,32.8,27.9,30.18,NNW,331,2.0,9.0,82,0.00,,---,0.00,VWS V14.01,2013-03-06 19:58:00,
2013-03-06 15:03:00,32.6,27.7,30.18,NNE,28,2.0,7.0,82,0.00,,---,0.00,VWS V14.01,2013-03-06 20:03:00,
2013-03-06 15:08:00,32.7,28.1,30.18,North,5,1.0,4.0,83,0.00,,---,0.00,VWS V14.01,2013-03-06 20:08:00,
2013-03-06 15:13:00,32.8,27.9,30.19,NW,321,2.0,5.0,82,0.00,,---,0.00,VWS V14.01,2013-03-06 20:13:00,
2013-03-06 15:18:00,32.8,27.9,30.19,NNW,346,2.0,5.0,82,0.00,,---,0.00,VWS V14.01,2013-03-06 20:18:00,
2013-03-06 15:23:00,32.5,27.6,30.19,WNW,302,2.0,9.0,82,0.00,,---,0.00,VWS V14.01,2013-03-06 20:23:00,
2013-03-06 15:28:00,32.3,27.4,30.19,North,360,3.0,5.0,82,0.00,,---,0.00,VWS V14.01,2013-03-06 20:28:00,
2013-03-06 15:33:00,32.1,27.2,30.19,NNE,19,2.0,6.0,82,0.00,,---,0.00,VWS V14.01,2013-03-06 20:33:00,
2013-03-06 15:38:00,32.2,27.3,30.19,North,355,1.0,7.0,82,0.00,,---,0.00,VWS V14.01,2013-03-06 20:38:00,
2013-03-06 15:43:00,32.1,27.5,30.19,North,10,4.0,6.0,83,0.00,,---,0.00,VWS V14.01,2013-03-06 20:43:00,
2013-03-06 15:48:00,32.1,27.5,30.19,North,11,6.0,6.0,83,0.00,,---,0.00,VWS V14.01,2013-03-06 20:48:00,
2013-03-06 15:53:00,32.1,27.5,30.19,NNE,32,1.0,9.0,83,0.00,,---,0.00,VWS V14.01,2013-03-06 20:53:00,
2013-03-06 15:58:00,32.2,27.6,30.19,NNE,19,0.0,7.0,83,0.00,,---,0.00,VWS V14.01,2013-03-06 20:58:00,
2013-03-06 16:03:00,32.1,27.5,30.19,North,351,2.0,9.0,83,0.00,,---,0.00,VWS V14.01,2013-03-06 21:03:00,
2013-03-06 16:08:00,32.1,27.5,30.19,NNE,26,2.0,12.0,83,0.00,,---,0.00,VWS V14.01,2013-03-06 21:08:00,
2013-03-06 16:13:00,32.1,27.5,30.19,North,11,4.0,10.0,83,0.00,,---,0.00,VWS V14.01,2013-03-06 21:13:00,
2013-03-06 16:18:00,32.0,27.4,30.19,WSW,253,0.0,5.0,83,0.00,,---,0.00,VWS V14.01,2013-03-06 21:18:00,
2013-03-06 16:23:00,32.0,27.4,30.19,North,11,2.0,6.0,83,0.00,,---,0.00,VWS V14.01,2013-03-06 21:23:00,
2013-03-06 16:28:00,31.9,27.3,30.19,North,5,1.0,9.0,83,0.00,,---,0.00,VWS V14.01,2013-03-06 21:28:00,
2013-03-06 16:33:00,31.8,27.2,30.19,North,5,3.0,9.0,83,0.00,,---,0.00,VWS V14.01,2013-03-06 21:33:00,
2013-03-06 16:38:00,31.7,27.1,30.19,NNE,14,2.0,4.0,83,0.00,,---,0.00,VWS V14.01,2013-03-06 21:38:00,
2013-03-06 16:43:00,31.7,27.1,30.19,NNE,29,6.0,6.0,83,0.00,,---,0.00,VWS V14.01,2013-03-06 21:43:00,
2013-03-06 16:49:00,31.7,27.1,30.19,North,360,1.0,9.0,83,0.00,,---,0.00,VWS V14.01,2013-03-06 21:49:00,
2013-03-06 16:54:00,31.7,27.1,30.19,North,360,2.0,3.0,83,0.00,,---,0.00,VWS V14.01,2013-03-06 21:54:00,
2013-03-06 16:59:00,31.7,27.1,30.19,NNE,17,2.0,6.0,83,0.00,,---,0.00,VWS V14.01,2013-03-06 21:59:00,
2013-03-06 17:04:00,31.6,27.3,30.19,NNE,17,4.0,8.0,84,0.00,,---,0.00,VWS V14.01,2013-03-06 22:04:00,
2013-03-06 17:09:00,31.6,27.3,30.19,North,11,2.0,6.0,84,0.00,,---,0.00,VWS V14.01,2013-03-06 22:09:00,
2013-03-06 17:14:00,31.6,27.3,30.19,NNE,15,2.0,7.0,84,0.00,,---,0.00,VWS V14.01,2013-03-06 22:14:00,
2013-03-06 17:19:00,31.6,27.3,30.19,WNW,302,2.0,4.0,84,0.00,,---,0.00,VWS V14.01,2013-03-06 22:19:00,
2013-03-06 17:24:00,31.5,27.2,30.19,NNE,13,4.0,7.0,84,0.00,,---,0.00,VWS V14.01,2013-03-06 22:24:00,
2013-03-06 17:29:00,31.5,27.5,30.19,NNE,33,0.0,11.0,85,0.00,,---,0.00,VWS V14.01,2013-03-06 22:29:00,
2013-03-06 17:34:00,31.4,27.7,30.19,North,10,4.0,7.0,86,0.00,,---,0.00,VWS V14.01,2013-03-06 22:34:00,
2013-03-06 17:39:00,31.2,27.8,30.19,North,351,3.0,7.0,87,0.00,,---,0.00,VWS V14.01,2013-03-06 22:39:00,
2013-03-06 17:44:00,31.1,28.0,30.19,NNE,17,5.0,11.0,88,0.00,,---,0.00,VWS V14.01,2013-03-06 22:44:00,
2013-03-06 17:49:00,31.0,27.9,30.19,North,11,0.0,7.0,88,0.00,,---,0.00,VWS V14.01,2013-03-06 22:49:00,
2013-03-06 17:54:00,31.0,27.9,30.19,NNE,17,4.0,10.0,88,0.00,,---,0.00,VWS V14.01,2013-03-06 22:54:00,
2013-03-06 17:59:00,30.9,27.8,30.20,North,360,4.0,4.0,88,0.00,,---,0.00,VWS V14.01,2013-03-06 22:59:00,
2013-03-06 18:04:00,31.0,28.1,30.20,North,350,2.0,4.0,89,0.00,,---,0.00,VWS V14.01,2013-03-06 23:04:00,
2013-03-06 18:09:00,31.0,28.1,30.20,NNE,16,1.0,5.0,89,0.00,,---,0.00,VWS V14.01,2013-03-06 23:09:00,
2013-03-06 18:14:00,31.0,28.1,30.20,NW,317,0.0,5.0,89,0.00,,---,0.00,VWS V14.01,2013-03-06 23:14:00,
2013-03-06 18:19:00,31.0,28.1,30.20,North,5,0.0,5.0,89,0.00,,---,0.00,VWS V14.01,2013-03-06 23:19:00,
2013-03-06 18:24:00,31.0,28.4,30.21,NW,321,4.0,5.0,90,0.00,,---,0.00,VWS V14.01,2013-03-06 23:24:00,
2013-03-06 18:29:00,31.0,28.4,30.20,NNW,334,0.0,4.0,90,0.00,,---,0.00,VWS V14.01,2013-03-06 23:29:00,
2013-03-06 18:34:00,30.9,28.3,30.21,NNE,30,0.0,6.0,90,0.00,,---,0.00,VWS V14.01,2013-03-06 23:34:00,
2013-03-06 18:39:00,30.8,28.2,30.21,North,360,0.0,6.0,90,0.00,,---,0.00,VWS V14.01,2013-03-06 23:39:00,
2013-03-06 18:44:00,30.8,28.2,30.21,NNE,25,2.0,5.0,90,0.00,,---,0.00,VWS V14.01,2013-03-06 23:44:00,
2013-03-06 18:49:00,30.8,28.2,30.21,West,275,0.0,6.0,90,0.00,,---,0.00,VWS V14.01,2013-03-06 23:49:00,
2013-03-06 18:54:00,30.8,28.5,30.21,NW,325,3.0,5.0,91,0.00,,---,0.00,VWS V14.01,2013-03-06 23:54:00,
2013-03-06 18:59:00,30.8,28.5,30.21,NE,44,0.0,4.0,91,0.00,,---,0.00,VWS V14.01,2013-03-06 23:59:00,
2013-03-06 19:04:00,30.8,28.5,30.21,NNE,32,1.0,6.0,91,0.00,,---,0.00,VWS V14.01,2013-03-07 00:04:00,
2013-03-06 19:09:00,30.8,28.5,30.21,North,5,2.0,5.0,91,0.00,,---,0.00,VWS V14.01,2013-03-07 00:09:00,
2013-03-06 19:14:00,30.8,28.5,30.21,West,268,3.0,6.0,91,0.00,,---,0.00,VWS V14.01,2013-03-07 00:14:00,
2013-03-06 19:19:00,30.8,28.5,30.21,North,360,0.0,9.0,91,0.00,,---,0.00,VWS V14.01,2013-03-07 00:19:00,
2013-03-06 19:24:00,30.8,28.5,30.21,NNE,13,1.0,5.0,91,0.00,,---,0.00,VWS V14.01,2013-03-07 00:24:00,
2013-03-06 19:29:00,30.8,28.8,30.22,North,5,0.0,4.0,92,0.00,,---,0.00,VWS V14.01,2013-03-07 00:29:00,
2013-03-06 19:34:00,30.8,28.8,30.22,North,5,0.0,2.0,92,0.00,,---,0.00,VWS V14.01,2013-03-07 00:34:00,
2013-03-06 19:39:00,30.8,28.8,30.22,North,350,2.0,4.0,92,0.00,,---,0.00,VWS V14.01,2013-03-07 00:39:00,
2013-03-06 19:44:00,30.7,28.7,30.22,North,5,1.0,3.0,92,0.00,,---,0.00,VWS V14.01,2013-03-07 00:44:00,
2013-03-06 19:49:00,30.7,28.7,30.22,NNW,346,2.0,4.0,92,0.00,,---,0.00,VWS V14.01,2013-03-07 00:49:00,
2013-03-06 19:54:00,30.4,28.4,30.22,North,5,2.0,6.0,92,0.00,,---,0.00,VWS V14.01,2013-03-07 00:54:00,
2013-03-06 19:59:00,30.3,28.3,30.22,North,350,0.0,6.0,92,0.00,,---,0.00,VWS V14.01,2013-03-07 00:59:00,
2013-03-06 20:04:00,30.2,28.2,30.22,WNW,292,2.0,5.0,92,0.00,,---,0.00,VWS V14.01,2013-03-07 01:04:00,
2013-03-06 20:09:00,30.2,28.2,30.22,North,11,0.0,6.0,92,0.00,,---,0.00,VWS V14.01,2013-03-07 01:09:00,
2013-03-06 20:14:00,30.1,28.1,30.22,NNE,15,0.0,4.0,92,0.00,,---,0.00,VWS V14.01,2013-03-07 01:14:00,
2013-03-06 20:19:00,30.2,28.2,30.22,North,5,3.0,7.0,92,0.00,,---,0.00,VWS V14.01,2013-03-07 01:19:00,
2013-03-06 20:24:00,30.2,28.2,30.22,North,360,2.0,5.0,92,0.00,,---,0.00,VWS V14.01,2013-03-07 01:24:00,
2013-03-06 20:29:00,30.1,28.1,30.22,NNE,27,4.0,7.0,92,0.00,,---,0.00,VWS V14.01,2013-03-07 01:29:00,
2013-03-06 20:34:00,30.0,28.0,30.22,NNW,330,6.0,7.0,92,0.00,,---,0.00,VWS V14.01,2013-03-07 01:34:00,
2013-03-06 20:39:00,29.7,27.7,30.23,NNW,333,0.0,5.0,92,0.00,,---,0.00,VWS V14.01,2013-03-07 01:39:00,
2013-03-06 20:44:00,29.5,27.5,30.23,NW,319,0.0,7.0,92,0.00,,---,0.00,VWS V14.01,2013-03-07 01:44:00,
2013-03-06 20:49:00,29.2,27.2,30.23,WNW,284,9.0,11.0,92,0.00,,---,0.00,VWS V14.01,2013-03-07 01:49:00,
2013-03-06 20:54:00,29.0,27.0,30.23,NNW,348,2.0,9.0,92,0.00,,---,0.00,VWS V14.01,2013-03-07 01:54:00,
2013-03-06 20:59:00,28.9,26.9,30.23,North,350,0.0,6.0,92,0.00,,---,0.00,VWS V14.01,2013-03-07 01:59:00,
2013-03-06 21:04:00,28.8,26.8,30.23,North,360,7.0,11.0,92,0.00,,---,0.00,VWS V14.01,2013-03-07 02:04:00,
2013-03-06 21:09:00,28.8,26.8,30.23,NNW,348,3.0,6.0,92,0.00,,---,0.00,VWS V14.01,2013-03-07 02:09:00,
2013-03-06 21:15:00,28.6,26.6,30.23,NNW,327,4.0,7.0,92,0.00,,---,0.00,VWS V14.01,2013-03-07 02:15:00,
2013-03-06 21:20:00,28.6,26.6,30.24,NNW,341,4.0,10.0,92,0.00,,---,0.00,VWS V14.01,2013-03-07 02:20:00,
2013-03-06 21:25:00,28.5,26.5,30.24,North,5,8.0,13.0,92,0.00,,---,0.00,VWS V14.01,2013-03-07 02:25:00,
2013-03-06 21:30:00,28.4,26.4,30.24,NW,309,2.0,12.0,92,0.00,,---,0.00,VWS V14.01,2013-03-07 02:30:00,
2013-03-06 21:35:00,28.3,26.3,30.24,NNE,15,3.0,9.0,92,0.00,,---,0.00,VWS V14.01,2013-03-07 02:35:00,
2013-03-06 21:40:00,28.3,26.3,30.24,NNW,348,9.0,9.0,92,0.00,,---,0.00,VWS V14.01,2013-03-07 02:40:00,
2013-03-06 21:45:00,28.1,26.1,30.24,West,272,5.0,8.0,92,0.00,,---,0.00,VWS V14.01,2013-03-07 02:45:00,
2013-03-06 21:50:00,27.8,25.8,30.24,NNE,21,16.0,16.0,92,0.00,,---,0.00,VWS V14.01,2013-03-07 02:50:00,
2013-03-06 21:55:00,27.7,25.7,30.24,North,5,8.0,15.0,92,0.00,,---,0.00,VWS V14.01,2013-03-07 02:55:00,
2013-03-06 22:00:00,27.7,25.7,30.25,NNE,20,5.0,15.0,92,0.00,,---,0.00,VWS V14.01,2013-03-07 03:00:00,
2013-03-06 22:05:00,27.7,25.7,30.24,NNE,22,7.0,9.0,92,0.00,,---,0.00,VWS V14.01,2013-03-07 03:05:00,
2013-03-06 22:10:00,27.8,25.8,30.25,NNW,327,0.0,10.0,92,0.00,,---,0.00,VWS V14.01,2013-03-07 03:10:00,
2013-03-06 22:15:00,27.7,25.7,30.25,NNE,13,1.0,11.0,92,0.00,,---,0.00,VWS V14.01,2013-03-07 03:15:00,
2013-03-06 22:20:00,27.5,25.5,30.25,NW,325,1.0,10.0,92,0.00,,---,0.00,VWS V14.01,2013-03-07 03:20:00,
2013-03-06 22:25:00,27.0,25.0,30.25,NNW,330,2.0,15.0,92,0.00,,---,0.00,VWS V14.01,2013-03-07 03:25:00,
2013-03-06 22:30:00,26.7,24.7,30.25,NNE,22,3.0,11.0,92,0.00,,---,0.00,VWS V14.01,2013-03-07 03:30:00,
2013-03-06 22:35:00,26.7,24.7,30.25,NE,36,2.0,11.0,92,0.00,,---,0.00,VWS V14.01,2013-03-07 03:35:00,
2013-03-06 22:40:00,26.6,24.3,30.25,WNW,298,4.0,15.0,91,0.00,,---,0.00,VWS V14.01,2013-03-07 03:40:00,
2013-03-06 22:45:00,26.6,24.3,30.25,North,11,4.0,7.0,91,0.00,,---,0.00,VWS V14.01,2013-03-07 03:45:00,
2013-03-06 22:50:00,26.5,24.2,30.25,North,351,6.0,12.0,91,0.00,,---,0.00,VWS V14.01,2013-03-07 03:50:00,
2013-03-06 22:55:00,26.5,24.0,30.25,NE,42,3.0,14.0,90,0.00,,---,0.00,VWS V14.01,2013-03-07 03:55:00,
2013-03-06 23:00:00,26.4,23.9,30.25,NNW,346,2.0,9.0,90,0.00,,---,0.00,VWS V14.01,2013-03-07 04:00:00,
2013-03-06 23:05:00,26.4,23.6,30.25,North,355,9.0,16.0,89,0.00,,---,0.00,VWS V14.01,2013-03-07 04:05:00,
2013-03-06 23:10:00,26.4,23.6,30.25,North,355,1.0,12.0,89,0.00,,---,0.00,VWS V14.01,2013-03-07 04:10:00,
2013-03-06 23:15:00,26.4,23.6,30.25,North,5,2.0,10.0,89,0.00,,---,0.00,VWS V14.01,2013-03-07 04:15:00,
2013-03-06 23:20:00,26.3,23.5,30.26,North,360,5.0,12.0,89,0.00,,---,0.00,VWS V14.01,2013-03-07 04:20:00,
2013-03-06 23:25:00,26.3,23.2,30.26,North,5,6.0,6.0,88,0.00,,---,0.00,VWS V14.01,2013-03-07 04:25:00,
2013-03-06 23:30:00,26.2,23.1,30.26,NNW,347,5.0,13.0,88,0.00,,---,0.00,VWS V14.01,2013-03-07 04:30:00,
2013-03-06 23:35:00,26.2,23.1,30.26,North,9,3.0,10.0,88,0.00,,---,0.00,VWS V14.01,2013-03-07 04:35:00,
2013-03-06 23:40:00,26.2,23.1,30.26,North,9,3.0,5.0,88,0.00,,---,0.00,VWS V14.01,2013-03-07 04:40:00,
2013-03-06 23:45:00,26.2,23.1,30.26,NW,321,1.0,10.0,88,0.00,,---,0.00,VWS V14.01,2013-03-07 04:45:00,
2013-03-06 23:50:00,26.2,23.1,30.26,NE,36,3.0,7.0,88,0.00,,---,0.00,VWS V14.01,2013-03-07 04:50:00,
2013-03-06 23:55:00,26.1,22.8,30.26,NW,318,3.0,12.0,87,0.00,,---,0.00,VWS V14.01,2013-03-07 04:55:00,